La Grande, OR

2:17 PM PST on November 17, 2019 (GMT -0800)
La Grande-Union County

Weather History for KLGD - October, 2019

Change the Weather History Date:

Monday, October 21, 2019

  Actual Average Record
Temperature  
Mean Temperature 45 °F -  
Max Temperature 51 °F 56 °F 82 °F (2003)
Min Temperature 39 °F 32 °F 15 °F (1996)
Degree Days  
Heating Degree Days 20    
Moisture  
Dew Point 40 °F    
Average Humidity 78    
Maximum Humidity 93    
Minimum Humidity 63    
Precipitation  
Precipitation 0.03 in - - ()
Sea Level Pressure  
Sea Level Pressure 30.26 in    
Wind  
Wind Speed 4 mph ()    
Max Wind Speed 9 mph    
Max Gust Speed -    
Visibility 10.0 miles    
Events Rain    
Averages and records for this station are not official NWS values.
T = Trace of Precipitation, MM = Missing Value Source: Averaged Metar Reports

Daily Weather History Graph

Daily Weather History Graph

Search for Another Location

Airport or City:

Astronomy

Oct. 21, 2019 Rise Set
Actual Time 7:15 AM PDT 5:56 PM PDT
Civil Twilight 6:45 AM PDT 6:26 PM PDT
Nautical Twilight 6:11 AM PDT 7:01 PM PDT
Astronomical Twilight 5:37 AM PDT 7:35 PM PDT
Moon No Moon Rise 2:47 PM PDT (10/21)
Length of Visible Light 11h 40m
Length of Day
10h 40m
Waning Gibbous, 47% of the Moon is Illuminated
Oct 21
Waning Gibbous
Oct 27
New
Nov 4
First Quarter
Nov 12
Full
Nov 19
Last Quarter

Hourly Weather History & Observations

Time (PDT) Temp. Windchill Dew Point Humidity Pressure Visibility Wind Dir Wind Speed Gust Speed Precip Events Conditions
12:56 AM 41.0 °F 35.8 °F 36.0 °F 82% 30.12 in 10.0 mi South 8.1 mph - N/A   Overcast
1:56 AM 39.9 °F 36.7 °F 37.0 °F 89% 30.15 in 10.0 mi Variable 4.6 mph - N/A   Overcast
2:56 AM 42.1 °F - 37.9 °F 85% 30.15 in 10.0 mi Calm Calm - N/A   Overcast
3:56 AM 44.1 °F 42.5 °F 37.9 °F 79% 30.17 in 10.0 mi NNE 3.5 mph - N/A   Overcast
4:56 AM 45.0 °F - 37.0 °F 74% 30.19 in 10.0 mi Calm Calm - N/A   Overcast
5:56 AM 45.0 °F 41.2 °F 37.0 °F 74% 30.21 in 10.0 mi WNW 6.9 mph - N/A   Overcast
6:56 AM 45.0 °F 41.8 °F 37.9 °F 76% 30.24 in 10.0 mi WNW 5.8 mph - 0.01 in   Overcast
7:56 AM 46.0 °F 42.5 °F 37.9 °F 73% 30.25 in 10.0 mi NW 6.9 mph - 0.00 in Rain Light Rain
8:56 AM 46.0 °F 41.9 °F 39.0 °F 76% 30.29 in 10.0 mi NW 8.1 mph - 0.00 in Rain Light Rain
9:56 AM 46.0 °F 43.1 °F 39.9 °F 79% 30.30 in 10.0 mi NW 5.8 mph - 0.00 in   Overcast
10:56 AM 48.0 °F - 39.0 °F 71% 30.31 in 10.0 mi Calm Calm - 0.00 in   Scattered Clouds
11:56 AM 50.0 °F - 41.0 °F 71% 30.31 in 10.0 mi ESE 9.2 mph - N/A   Mostly Cloudy
12:56 PM 51.1 °F - 39.0 °F 63% 30.30 in 10.0 mi SSE 8.1 mph - 0.00 in   Overcast
1:56 PM 50.0 °F - 39.0 °F 66% 30.29 in 10.0 mi SE 9.2 mph - 0.00 in Rain Light Rain
2:56 PM 50.0 °F - 39.9 °F 68% 30.30 in 10.0 mi SE 6.9 mph - 0.00 in Rain Light Rain
3:56 PM 50.0 °F - 41.0 °F 71% 30.30 in 10.0 mi ESE 9.2 mph - 0.00 in Rain Light Rain
4:56 PM 48.0 °F - 42.1 °F 80% 30.31 in 10.0 mi SE 8.1 mph - 0.01 in Rain Light Rain
5:56 PM 46.9 °F - 43.0 °F 86% 30.30 in 10.0 mi SSE 4.6 mph - 0.01 in Rain Light Rain
6:56 PM 46.0 °F 43.1 °F 44.1 °F 93% 30.30 in 10.0 mi West 5.8 mph - 0.00 in   Overcast
7:56 PM 46.0 °F - 44.1 °F 93% 30.30 in 10.0 mi Calm Calm - N/A   Overcast
8:56 PM 46.9 °F - 43.0 °F 86% 30.30 in 10.0 mi Calm Calm - N/A   Overcast
9:56 PM 46.9 °F - 42.1 °F 83% 30.31 in 10.0 mi Calm Calm - N/A   Overcast
10:56 PM 48.0 °F - 42.1 °F 80% 30.31 in 10.0 mi ESE 3.5 mph - N/A   Overcast
11:56 PM 46.9 °F - 42.1 °F 83% 30.31 in 10.0 mi East 3.5 mph - N/A   Overcast